Location: Sungai Bunut
(2.6333°N, 113.7333°E)
Time: 06:37:56
(UTC+00:00)

S-56A Canister/Altair - Pass Details

Date: 03 December 2023
Orbit: 639 x 2488 km, 38.9° (Epoch: 04 March)

Event Time Altitude Azimuth Distance (km) Brightness Sun altitude
Rises 13:00:42 0° 303° (WNW) 4,336 11.7 -39.1°
Reaches altitude 10° 13:03:15 10° 300° (WNW) 3,580 11.2 -39.6°
Maximum altitude 13:12:47 66° 220° (SW) 2,055 9.6 -41.8°
Drops below altitude 10° 13:26:32 10° 141° (SE) 4,992 11.5 -44.8°
Sets 13:30:48 0° 138° (SE) 6,108 12.0 -45.7°
